TimeEDT,TemperatureF,Dew PointF,Humidity,Sea Level PressureIn,VisibilityMPH,Wind Direction,Wind SpeedMPH,Gust SpeedMPH,PrecipitationIn,Events,Conditions,WindDirDegrees,DateUTC
12:00 AM,44.1,31.3,61,30.05,-9999.0,WSW,9.2,18.4,N/A,,Unknown,250,2012-10-11 04:00:00
1:00 AM,44.2,34.7,69,30.06,-9999.0,WSW,8.1,-,N/A,,Unknown,250,2012-10-11 05:00:00
2:00 AM,44,33,54,30.08,,WSW,9.2,,,,,240,2012-10-11 06:00:00
2:00 AM,44.2,32.9,64,30.08,-9999.0,WSW,9.2,-,N/A,,Unknown,240,2012-10-11 06:00:00
3:00 AM,43.5,32.0,64,30.09,-9999.0,SW,11.5,-,N/A,,Unknown,220,2012-10-11 07:00:00
4:00 AM,42.4,34.5,74,30.11,-9999.0,WSW,6.9,-,N/A,,Unknown,240,2012-10-11 08:00:00
5:00 AM,41.7,31.3,66,30.12,-9999.0,SW,9.2,-,N/A,,Unknown,220,2012-10-11 09:00:00
6:00 AM,39.9,31.3,71,30.14,-9999.0,WSW,9.2,-,N/A,,Unknown,250,2012-10-11 10:00:00
7:00 AM,38.8,31.1,74,30.16,-9999.0,West,5.8,-,N/A,,Unknown,260,2012-10-11 11:00:00
8:00 AM,39,30,61,30.18,,WSW,8.1,,,,,250,2012-10-11 12:00:00
8:00 AM,38.7,30.2,72,30.18,-9999.0,WSW,8.1,-,N/A,,Unknown,250,2012-10-11 12:00:00
9:00 AM,39.7,30.4,69,30.18,-9999.0,WSW,9.2,-,N/A,,Unknown,240,2012-10-11 13:00:00
11:00 AM,46.9,27.0,46,30.17,-9999.0,SSW,10.4,-,N/A,,Unknown,200,2012-10-11 15:00:00
1:00 PM,52.2,28.6,40,30.10,-9999.0,SSW,13.8,21.9,N/A,,Unknown,200,2012-10-11 17:00:00
2:00 PM,54,35,36,30.04,,SSW,19.6,,,,,200,2012-10-11 18:00:00
2:00 PM,53.8,34.5,48,30.04,-9999.0,SSW,19.6,28.8,N/A,,Unknown,200,2012-10-11 18:00:00
4:00 PM,55.6,36.7,49,29.99,-9999.0,SSW,17.3,26.5,N/A,,Unknown,210,2012-10-11 20:00:00
5:00 PM,55.9,35.6,46,29.97,-9999.0,SSW,25.3,33.4,N/A,,Unknown,210,2012-10-11 21:00:00
6:00 PM,55.8,37.9,51,29.95,-9999.0,SSW,20.7,29.9,N/A,,Unknown,210,2012-10-11 22:00:00
7:00 PM,55.8,38.5,52,29.97,-9999.0,SSW,15.0,-,N/A,,Unknown,210,2012-10-11 23:00:00
8:00 PM,56,38,40,29.97,,SSW,13.8,,,,,210,2012-10-12 00:00:00
8:00 PM,56.3,38.5,51,29.97,-9999.0,SSW,13.8,23.0,N/A,,Unknown,210,2012-10-12 00:00:00
11:00 PM,49.8,44.1,81,30.06,-9999.0,WNW,13.8,-,N/A,,Unknown,290,2012-10-12 03:00:00